Grub im Wienerwald
Wetterdaten: aktuell Samstag, 04.12.2021 21:33
Datum Zeit Temp. A. Feuchte A. Luftdruck Regen Wind Richtung Richtung Sonnenschein UV Solar Taupunkt Windchill Windben
04.12.2021 21:33 0,6 C 88 % 1002,6 hPa 0,0 l/m 0,0 km/h O 95 0 min 0,0 UV-I 0 W/m -1,2 C 0,6 C 0,0 km/h
04.12.2021 21:30 0,6 C 88 % 1002,6 hPa 0,2 l/m 0,0 km/h O 95 0 min 0,0 UV-I 0 W/m -1,2 C 0,6 C 0,0 km/h
04.12.2021 21:27 0,6 C 88 % 1002,5 hPa 0,0 l/m 0,4 km/h O 95 0 min 0,0 UV-I 0 W/m -1,2 C 0,6 C 1,6 km/h
04.12.2021 21:24 0,7 C 88 % 1002,6 hPa 0,0 l/m 0,0 km/h O 95 0 min 0,0 UV-I 0 W/m -1,1 C 0,7 C 0,0 km/h
04.12.2021 21:21 0,7 C 88 % 1002,5 hPa 0,2 l/m 0,0 km/h O 95 0 min 0,0 UV-I 0 W/m -1,1 C 0,7 C 0,0 km/h
04.12.2021 21:18 0,7 C 88 % 1002,6 hPa 0,0 l/m 0,0 km/h O 95 0 min 0,0 UV-I 0 W/m -1,1 C 0,7 C 0,0 km/h
04.12.2021 21:15 0,7 C 87 % 1002,5 hPa 0,0 l/m 0,0 km/h O 95 0 min 0,0 UV-I 0 W/m -1,2 C 0,7 C 0,0 km/h
04.12.2021 21:12 0,7 C 87 % 1002,6 hPa 0,0 l/m 0,0 km/h O 95 0 min 0,0 UV-I 0 W/m -1,2 C 0,7 C 0,0 km/h
04.12.2021 21:09 0,7 C 87 % 1002,5 hPa 0,0 l/m 0,0 km/h O 95 0 min 0,0 UV-I 0 W/m -1,2 C 0,7 C 0,0 km/h
04.12.2021 21:06 0,8 C 87 % 1002,6 hPa 0,0 l/m 0,3 km/h O 95 0 min 0,0 UV-I 0 W/m -1,1 C 0,8 C 3,2 km/h
04.12.2021 21:03 0,8 C 86 % 1002,4 hPa 0,2 l/m 0,0 km/h O 95 0 min 0,0 UV-I 0 W/m -1,3 C 0,8 C 0,0 km/h
04.12.2021 21:00 0,8 C 86 % 1002,5 hPa 0,0 l/m 0,0 km/h O 95 0 min 0,0 UV-I 0 W/m -1,3 C 0,8 C 0,0 km/h
04.12.2021 20:57 0,8 C 86 % 1002,5 hPa 0,0 l/m 0,0 km/h O 95 0 min 0,0 UV-I 0 W/m -1,3 C 0,8 C 0,0 km/h
04.12.2021 20:54 0,8 C 85 % 1002,5 hPa 0,0 l/m 0,0 km/h O 95 0 min 0,0 UV-I 0 W/m -1,4 C 0,8 C 0,0 km/h
04.12.2021 20:51 0,8 C 85 % 1002,5 hPa 0,0 l/m 0,0 km/h O 95 0 min 0,0 UV-I 0 W/m -1,4 C 0,8 C 0,0 km/h
04.12.2021 20:48 0,8 C 85 % 1002,5 hPa 0,0 l/m 0,0 km/h O 95 0 min 0,0 UV-I 0 W/m -1,4 C 0,8 C 0,0 km/h
04.12.2021 20:45 0,8 C 85 % 1002,5 hPa 0,0 l/m 0,2 km/h O 95 0 min 0,0 UV-I 0 W/m -1,4 C 0,8 C 3,2 km/h
04.12.2021 20:42 0,8 C 85 % 1002,5 hPa 0,0 l/m 0,4 km/h O 95 0 min 0,0 UV-I 0 W/m -1,4 C 0,8 C 3,2 km/h
04.12.2021 20:39 0,8 C 85 % 1002,5 hPa 0,0 l/m 0,8 km/h O 95 0 min 0,0 UV-I 0 W/m -1,4 C 0,8 C 6,4 km/h
04.12.2021 20:36 0,8 C 85 % 1002,5 hPa 0,0 l/m 0,2 km/h O 95 0 min 0,0 UV-I 0 W/m -1,4 C 0,8 C 3,2 km/h
04.12.2021 20:33 0,8 C 85 % 1002,5 hPa 0,0 l/m 1,3 km/h O 95 0 min 0,0 UV-I 0 W/m -1,4 C 0,8 C 6,4 km/h
04.12.2021 20:30 0,8 C 85 % 1002,5 hPa 0,0 l/m 0,7 km/h O 95 0 min 0,0 UV-I 0 W/m -1,4 C 0,8 C 3,2 km/h
04.12.2021 20:27 0,8 C 85 % 1002,5 hPa 0,0 l/m 1,5 km/h O 95 0 min 0,0 UV-I 0 W/m -1,4 C 0,8 C 6,4 km/h
04.12.2021 20:24 0,8 C 85 % 1002,4 hPa 0,0 l/m 1,8 km/h O 95 0 min 0,0 UV-I 0 W/m -1,4 C 0,8 C 6,4 km/h
04.12.2021 20:21 0,8 C 85 % 1002,4 hPa 0,0 l/m 0,8 km/h O 95 0 min 0,0 UV-I 0 W/m -1,4 C 0,8 C 3,2 km/h
04.12.2021 20:18 0,8 C 85 % 1002,4 hPa 0,0 l/m 1,2 km/h O 95 0 min 0,0 UV-I 0 W/m -1,4 C 0,8 C 3,2 km/h
04.12.2021 20:15 0,8 C 85 % 1002,3 hPa 0,0 l/m 0,0 km/h O 95 0 min 0,0 UV-I 0 W/m -1,4 C 0,8 C 1,6 km/h
04.12.2021 20:12 0,8 C 84 % 1002,4 hPa 0,0 l/m 0,7 km/h O 95 0 min 0,0 UV-I 0 W/m -1,6 C 0,8 C 3,2 km/h
04.12.2021 20:09 0,8 C 84 % 1002,5 hPa 0,0 l/m 2,8 km/h O 95 0 min 0,0 UV-I 0 W/m -1,6 C 0,8 C 6,4 km/h
04.12.2021 20:06 0,8 C 84 % 1002,5 hPa 0,0 l/m 1,1 km/h O 95 0 min 0,0 UV-I 0 W/m -1,6 C 0,8 C 6,4 km/h
04.12.2021 20:03 0,8 C 84 % 1002,5 hPa 0,0 l/m 0,0 km/h O 95 0 min 0,0 UV-I 0 W/m -1,6 C 0,8 C 0,0 km/h
04.12.2021 20:00 0,8 C 84 % 1002,3 hPa 0,0 l/m 0,2 km/h O 95 0 min 0,0 UV-I 0 W/m -1,6 C 0,8 C 3,2 km/h
04.12.2021 19:57 0,8 C 84 % 1002,3 hPa 0,0 l/m 1,5 km/h O 95 0 min 0,0 UV-I 0 W/m -1,6 C 0,8 C 6,4 km/h
04.12.2021 19:54 0,8 C 84 % 1002,3 hPa 0,0 l/m 1,4 km/h O 95 0 min 0,0 UV-I 0 W/m -1,6 C 0,8 C 6,4 km/h
04.12.2021 19:51 0,8 C 84 % 1002,3 hPa 0,0 l/m 2,4 km/h O 95 0 min 0,0 UV-I 0 W/m -1,6 C 0,8 C 8,0 km/h
04.12.2021 19:48 0,8 C 84 % 1002,3 hPa 0,0 l/m 3,9 km/h O 95 0 min 0,0 UV-I 0 W/m -1,6 C 0,8 C 8,0 km/h
04.12.2021 19:45 0,8 C 84 % 1002,4 hPa 0,0 l/m 5,3 km/h O 95 0 min 0,0 UV-I 0 W/m -1,6 C 0,8 C 11,3 km/h
04.12.2021 19:42 0,8 C 84 % 1002,5 hPa 0,0 l/m 3,8 km/h O 92 0 min 0,0 UV-I 0 W/m -1,6 C 0,8 C 9,7 km/h
04.12.2021 19:39 0,8 C 84 % 1002,5 hPa 0,0 l/m 4,6 km/h O 90 0 min 0,0 UV-I 0 W/m -1,6 C 0,8 C 11,3 km/h
04.12.2021 19:36 0,8 C 84 % 1002,5 hPa 0,0 l/m 4,4 km/h O 88 0 min 0,0 UV-I 0 W/m -1,6 C 0,8 C 11,3 km/h
04.12.2021 19:33 0,8 C 84 % 1002,6 hPa 0,0 l/m 2,8 km/h O-NO 77 0 min 0,0 UV-I 0 W/m -1,6 C 0,8 C 6,4 km/h
04.12.2021 19:30 0,8 C 84 % 1002,6 hPa 0,0 l/m 3,4 km/h O-NO 77 0 min 0,0 UV-I 0 W/m -1,6 C 0,8 C 8,0 km/h
04.12.2021 19:27 0,8 C 84 % 1002,5 hPa 0,0 l/m 3,2 km/h O-NO 74 0 min 0,0 UV-I 0 W/m -1,6 C 0,8 C 8,0 km/h
04.12.2021 19:24 0,8 C 84 % 1002,5 hPa 0,0 l/m 3,0 km/h O-NO 74 0 min 0,0 UV-I 0 W/m -1,6 C 0,8 C 8,0 km/h
04.12.2021 19:21 0,8 C 84 % 1002,3 hPa 0,0 l/m 3,0 km/h O-NO 73 0 min 0,0 UV-I 0 W/m -1,6 C 0,8 C 9,7 km/h
04.12.2021 19:18 0,8 C 84 % 1002,3 hPa 0,0 l/m 1,1 km/h O-NO 61 0 min 0,0 UV-I 0 W/m -1,6 C 0,8 C 4,8 km/h
04.12.2021 19:15 0,8 C 84 % 1002,4 hPa 0,0 l/m 3,2 km/h O-NO 61 0 min 0,0 UV-I 0 W/m -1,6 C 0,8 C 6,4 km/h
04.12.2021 19:12 0,8 C 84 % 1002,4 hPa 0,0 l/m 2,5 km/h O-NO 61 0 min 0,0 UV-I 0 W/m -1,6 C 0,8 C 6,4 km/h
04.12.2021 19:09 0,8 C 84 % 1002,4 hPa 0,0 l/m 2,2 km/h O-NO 61 0 min 0,0 UV-I 0 W/m -1,6 C 0,8 C 6,4 km/h
04.12.2021 19:06 0,8 C 84 % 1002,4 hPa 0,0 l/m 2,2 km/h O-NO 61 0 min 0,0 UV-I 0 W/m -1,6 C 0,8 C 4,8 km/h
04.12.2021 19:03 0,8 C 84 % 1002,4 hPa 0,0 l/m 1,2 km/h O-NO 61 0 min 0,0 UV-I 0 W/m -1,6 C 0,8 C 4,8 km/h
04.12.2021 19:00 0,9 C 84 % 1002,4 hPa 0,0 l/m 0,9 km/h O-NO 61 0 min 0,0 UV-I 0 W/m -1,5 C 0,9 C 4,8 km/h
04.12.2021 18:57 0,8 C 84 % 1002,5 hPa 0,0 l/m 3,1 km/h O-NO 61 0 min 0,0 UV-I 0 W/m -1,6 C 0,8 C 6,4 km/h
04.12.2021 18:54 0,9 C 84 % 1002,5 hPa 0,0 l/m 4,2 km/h O-NO 61 0 min 0,0 UV-I 0 W/m -1,5 C 0,9 C 9,7 km/h
04.12.2021 18:51 0,8 C 84 % 1002,6 hPa 0,0 l/m 2,1 km/h O-NO 59 0 min 0,0 UV-I 0 W/m -1,6 C 0,8 C 6,4 km/h
04.12.2021 18:48 0,8 C 84 % 1002,7 hPa 0,0 l/m 3,3 km/h O-NO 58 0 min 0,0 UV-I 0 W/m -1,6 C 0,8 C 9,7 km/h
04.12.2021 18:45 0,8 C 84 % 1002,7 hPa 0,0 l/m 4,4 km/h O-NO 58 0 min 0,0 UV-I 0 W/m -1,6 C 0,8 C 11,3 km/h
04.12.2021 18:42 0,8 C 84 % 1002,7 hPa 0,0 l/m 2,6 km/h NO 54 0 min 0,0 UV-I 0 W/m -1,6 C 0,8 C 9,7 km/h
04.12.2021 18:39 0,8 C 84 % 1002,7 hPa 0,0 l/m 4,3 km/h NO 53 0 min 0,0 UV-I 0 W/m -1,6 C 0,8 C 8,0 km/h
04.12.2021 18:36 0,9 C 84 % 1002,7 hPa 0,0 l/m 3,0 km/h NO 53 0 min 0,0 UV-I 0 W/m -1,5 C 0,9 C 6,4 km/h
04.12.2021 18:33 0,8 C 84 % 1002,8 hPa 0,0 l/m 3,4 km/h NO 52 0 min 0,0 UV-I 0 W/m -1,6 C 0,8 C 6,4 km/h
04.12.2021 18:30 0,8 C 84 % 1002,8 hPa 0,0 l/m 3,6 km/h NO 52 0 min 0,0 UV-I 0 W/m -1,6 C 0,8 C 9,7 km/h
04.12.2021 18:27 0,8 C 84 % 1002,7 hPa 0,0 l/m 3,4 km/h NO 49 0 min 0,0 UV-I 0 W/m -1,6 C 0,8 C 9,7 km/h
04.12.2021 18:24 0,8 C 84 % 1002,7 hPa 0,0 l/m 4,7 km/h NO 46 0 min 0,0 UV-I 0 W/m -1,6 C 0,8 C 8,0 km/h
04.12.2021 18:21 0,8 C 84 % 1002,6 hPa 0,0 l/m 2,6 km/h NO 46 0 min 0,0 UV-I 0 W/m -1,6 C 0,8 C 6,4 km/h
04.12.2021 18:18 0,8 C 84 % 1002,8 hPa 0,0 l/m 3,0 km/h NO 46 0 min 0,0 UV-I 0 W/m -1,6 C 0,8 C 6,4 km/h
04.12.2021 18:15 0,8 C 84 % 1002,8 hPa 0,0 l/m 3,3 km/h NO 46 0 min 0,0 UV-I 0 W/m -1,6 C 0,8 C 9,7 km/h
04.12.2021 18:12 0,8 C 84 % 1002,7 hPa 0,0 l/m 1,8 km/h NO 45 0 min 0,0 UV-I 0 W/m -1,6 C 0,8 C 6,4 km/h
04.12.2021 18:09 0,8 C 84 % 1002,8 hPa 0,0 l/m 2,9 km/h NO 45 0 min 0,0 UV-I 0 W/m -1,6 C 0,8 C 8,0 km/h
04.12.2021 18:06 0,9 C 84 % 1002,8 hPa 0,0 l/m 1,0 km/h NO 44 0 min 0,0 UV-I 0 W/m -1,5 C 0,9 C 6,4 km/h
04.12.2021 18:03 0,9 C 84 % 1002,8 hPa 0,0 l/m 3,6 km/h NO 44 0 min 0,0 UV-I 0 W/m -1,5 C 0,9 C 6,4 km/h
04.12.2021 18:00 0,9 C 84 % 1002,7 hPa 0,0 l/m 3,4 km/h NO 44 0 min 0,0 UV-I 0 W/m -1,5 C 0,9 C 9,7 km/h
04.12.2021 17:57 0,9 C 85 % 1002,6 hPa 0,0 l/m 3,9 km/h NO 38 0 min 0,0 UV-I 0 W/m -1,3 C 0,9 C 9,7 km/h
04.12.2021 17:54 0,9 C 85 % 1002,7 hPa 0,0 l/m 2,4 km/h NO 34 0 min 0,0 UV-I 0 W/m -1,3 C 0,9 C 6,4 km/h
04.12.2021 17:51 0,9 C 85 % 1002,6 hPa 0,0 l/m 1,5 km/h NO 34 0 min 0,0 UV-I 0 W/m -1,3 C 0,9 C 6,4 km/h
04.12.2021 17:48 0,9 C 84 % 1002,6 hPa 0,0 l/m 1,3 km/h NO 34 0 min 0,0 UV-I 0 W/m -1,5 C 0,9 C 4,8 km/h
04.12.2021 17:45 0,9 C 84 % 1002,7 hPa 0,0 l/m 2,4 km/h NO 34 0 min 0,0 UV-I 0 W/m -1,5 C 0,9 C 6,4 km/h
04.12.2021 17:42 1,0 C 84 % 1002,7 hPa 0,0 l/m 1,1 km/h NO 34 0 min 0,0 UV-I 0 W/m -1,4 C 1,0 C 4,8 km/h
04.12.2021 17:39 1,0 C 84 % 1002,7 hPa 0,0 l/m 0,0 km/h NO 34 0 min 0,0 UV-I 0 W/m -1,4 C 1,0 C 0,0 km/h
04.12.2021 17:36 1,1 C 84 % 1002,6 hPa 0,0 l/m 1,2 km/h NO 34 0 min 0,0 UV-I 0 W/m -1,3 C 1,1 C 4,8 km/h
04.12.2021 17:33 1,0 C 83 % 1002,8 hPa 0,0 l/m 2,0 km/h NO 34 0 min 0,0 UV-I 0 W/m -1,6 C 1,0 C 4,8 km/h
04.12.2021 17:30 1,1 C 83 % 1002,8 hPa 0,0 l/m 1,8 km/h NO 34 0 min 0,0 UV-I 0 W/m -1,5 C 1,1 C 4,8 km/h
04.12.2021 17:27 1,1 C 83 % 1002,8 hPa 0,0 l/m 0,0 km/h NO 34 0 min 0,0 UV-I 0 W/m -1,5 C 1,1 C 1,6 km/h
04.12.2021 17:24 1,1 C 83 % 1002,7 hPa 0,0 l/m 1,3 km/h NO 34 0 min 0,0 UV-I 0 W/m -1,5 C 1,1 C 6,4 km/h
04.12.2021 17:21 1,2 C 83 % 1002,7 hPa 0,0 l/m 2,6 km/h NO 34 0 min 0,0 UV-I 0 W/m -1,4 C 1,2 C 4,8 km/h
04.12.2021 17:18 1,2 C 83 % 1002,7 hPa 0,0 l/m 2,1 km/h NO 34 0 min 0,0 UV-I 0 W/m -1,4 C 1,2 C 6,4 km/h
04.12.2021 17:15 1,2 C 83 % 1002,7 hPa 0,0 l/m 1,9 km/h NO 34 0 min 0,0 UV-I 0 W/m -1,4 C 1,2 C 4,8 km/h
04.12.2021 17:12 1,2 C 82 % 1002,8 hPa 0,0 l/m 0,7 km/h NO 34 0 min 0,0 UV-I 0 W/m -1,5 C 1,2 C 3,2 km/h
04.12.2021 17:09 1,2 C 82 % 1002,8 hPa 0,0 l/m 1,2 km/h NO 34 0 min 0,0 UV-I 0 W/m -1,5 C 1,2 C 3,2 km/h
04.12.2021 17:06 1,3 C 82 % 1002,8 hPa 0,0 l/m 0,2 km/h NO 34 0 min 0,0 UV-I 0 W/m -1,4 C 1,3 C 1,6 km/h
04.12.2021 17:03 1,3 C 82 % 1002,8 hPa 0,0 l/m 0,8 km/h NO 34 0 min 0,0 UV-I 0 W/m -1,4 C 1,3 C 3,2 km/h
_ Min-Zeit 03:45 16:03 19:18 - 22:00 - - - - - 03:45 03:45 22:00
Minimum _ -7,9 C 79 % 1002,3 hPa - 0,0 km/h - - - - - -9,0 C -7,9 C 0,0 km/h
_ Max-Zeit 14:03 05:30 22:00 14:36 19:45 - - 11:48 11:24 12:51 15:09 14:03 18:45
Maximum _ 2,3 C 100 % 1014,8 hPa 0,2 l/m 5,3 km/h
O
- - 3 min 0,9 UV-I 221 W/m -0,3 C 2,3 C 11,3 km/h
O-NO
Durchschnitt _ -3,2 C 90 % 1007,4 hPa #0,8 l/m 0,5 km/h NO - #27 min. 0,7 UV-I 70 W/m -4,7 C -3,2 C 1,5 km/h
Schulla EDV